Regional Weather Roundup
Issued by NWS

Home | Current Version | Previous Version | Text Only | Print | Product List | Glossary Off
Versions: 1 2 3 4 5 6 7 8 9 10 11 12 13 14 15 16 17 18 19 20 21 22 23 24 25 26 27 28 29 30 31 32 33 34 35 36 37 38 39 40 41 42 43 44 45 46 47 48 49 50

000
ASUS43 KLMK 230010
RWRKY
KENTUCKY REGIONAL WEATHER ROUNDUP
NATIONAL WEATHER SERVICE LOUISVILLE KY
800 PM EDT MON MAY 22 2017

NOTE "FAIR" INDICATES FEW OR NO CLOUDS BELOW 12,000 FEET
WITH NO SIGNIFICANT WEATHER AND/OR OBSTRUCTIONS TO VISIBILITY.

KYZ001>023-026-027-061>063-070>075-230100-
WESTERN AND SOUTH CENTRAL KENTUCKY

CITY           SKY/WX    TMP DP  RH WIND       PRES   REMARKS
PADUCAH        CLOUDY    70  50  49 S3        29.96F
HENDERSON      MOSUNNY   70  49  47 SE3       29.98F
OWENSBORO      PTCLDY    70  51  51 SE6       29.99F
HOPKINSVILLE   CLOUDY    69  49  48 E6        29.96F
BOWLING GREEN  PTCLDY    68  55  63 E5        29.99S
GLASGOW        CLOUDY    67  50  55 NE3       29.99S
$$

KYZ024-025-028>034-038-045-046-053-230100-
NORTH CENTRAL KENTUCKY

CITY           SKY/WX    TMP DP  RH WIND       PRES   REMARKS
LOUISVILLE/SDF MOCLDY    70  46  42 SE6       30.00F
LOUISVILLE/LOU PTCLDY    70  47  43 SE3       30.01F
FORT KNOX      PTCLDY    67  51  56 E6        29.99F
$$

KYZ035>037-039>044-047>052-055>060-089>105-230100-
NORTHEAST KENTUCKY

CITY           SKY/WX    TMP DP  RH WIND       PRES   REMARKS
LEXINGTON      CLOUDY    65  47  52 NE8       30.03F
COVINGTON      MOCLDY    65  46  50 SE6       30.03S
FRANKFORT      CLOUDY    66  49  54 SE5       30.01F
$$

KYZ054-064>069-076>088-106>120-230100-
SOUTHEAST KENTUCKY

CITY           SKY/WX    TMP DP  RH WIND       PRES   REMARKS
JACKSON        CLOUDY    63  52  67 CALM      30.04R
LONDON         PTCLDY    65  51  60 NE5       30.02S
SOMERSET       PTCLDY    63  50  63 E3        30.02F
MIDDLESBORO    PTCLDY    68  56  66 CALM      30.01F
MONTICELLO     MOCLDY    65  52  62 W7        30.03S
$$





USA.gov is the U.S. government's official web portal to all federal, state and local government web resources and services.